,,,PA_Meas_PMT16A,,PR_Meas_QMR101_102,,RH_Meas_QMH101,,SR_Meas_QMS101,,TA_Meas_QMH101,,GenWind,,GenWind,
date,time,status,PA,status,PR,status,RH,status,SR,status,TA,status,DirAvg,status,SpdAvg,
2010-09-25, 00:00:04,VALID,1001.81,VALID,0,VALID,78.5775,VALID,144.308,VALID,28.6144,VALID,21,VALID,1.53437,
2010-09-25, 00:01:04,VALID,1001.81,VALID,0,VALID,79.0733,VALID,141.693,VALID,28.5927,VALID,88,VALID,0.762891,
2010-09-25, 00:02:04,VALID,1001.85,VALID,0,VALID,79.0657,VALID,138.173,VALID,28.5949,VALID,24,VALID,1.41055,
2010-09-25, 00:03:04,VALID,1001.85,VALID,0,VALID,78.8216,VALID,133.246,VALID,28.4974,VALID,29,VALID,1.22305,
2010-09-25, 00:04:04,VALID,1001.88,VALID,0,VALID,79.2564,VALID,120.374,VALID,28.4779,VALID,14,VALID,1.0125,
2010-09-25, 00:05:04,VALID,1001.87,VALID,0,VALID,80.1795,VALID,122.285,VALID,28.4974,VALID,31,VALID,0.621484,
2010-09-25, 00:06:04,VALID,1001.89,VALID,0,VALID,80.3169,VALID,117.458,VALID,28.5169,VALID,49,VALID,0.240625,
2010-09-25, 00:07:04,VALID,1001.94,VALID,0,VALID,80.3397,VALID,88.9982,VALID,28.4974,VALID,97,VALID,1.10234,
2010-09-25, 00:08:04,VALID,1001.94,VALID,0,VALID,79.821,VALID,126.106,VALID,28.4389,VALID,76,VALID,0.717969,
2010-09-25, 00:09:04,VALID,1001.97,VALID,0,VALID,80.7441,VALID,123.391,VALID,28.4389,VALID,15,VALID,0.618359,
2010-09-25, 00:10:04,VALID,1001.99,VALID,0,VALID,80.2787,VALID,110.72,VALID,28.4584,VALID,5,VALID,0.158984,
2010-09-25, 00:11:04,VALID,1002.05,VALID,0,VALID,80.2787,VALID,108.507,VALID,28.4953,VALID,12,VALID,0.657812,
2010-09-25, 00:12:04,VALID,1002.07,VALID,0,VALID,80.3016,VALID,114.139,VALID,28.4758,VALID,69,VALID,0.896484,
2010-09-25, 00:13:04,VALID,1002.08,VALID,0,VALID,79.5006,VALID,114.642,VALID,28.4173,VALID,33,VALID,1.03516,
2010-09-25, 00:14:04,VALID,1002.13,VALID,0,VALID,79.7294,VALID,94.4286,VALID,28.3567,VALID,23,VALID,1.25508,
2010-09-25, 00:15:04,VALID,1002.18,VALID,0,VALID,80.7441,VALID,85.4785,VALID,28.3393,VALID,24,VALID,1.19102,
2010-09-25, 00:16:04,VALID,1002.2,VALID,0,VALID,80.4999,VALID,84.8751,VALID,28.2614,VALID,37,VALID,0.916406,
2010-09-25, 00:17:04,VALID,1002.22,VALID,0,VALID,80.5381,VALID,78.0368,VALID,28.2202,VALID,28,VALID,1.06914,
2010-09-25, 00:18:04,VALID,1002.25,VALID,0,VALID,80.355,VALID,73.9138,VALID,28.2008,VALID,14,VALID,1.43633,
2010-09-25, 00:19:04,VALID,1002.25,VALID,0,VALID,81.3239,VALID,71.098,VALID,28.1618,VALID,36,VALID,0.50625,
2010-09-25, 00:20:04,VALID,1002.3,VALID,0,VALID,81.034,VALID,67.7794,VALID,28.1639,VALID,65,VALID,0.543359,
2010-09-25, 00:21:04,VALID,1002.25,VALID,0,VALID,81.3391,VALID,63.1535,VALID,28.1423,VALID,46,VALID,1.05,
2010-09-25, 00:22:04,VALID,1002.27,VALID,0,VALID,81.6061,VALID,57.7231,VALID,28.1423,VALID,48,VALID,0.416406,
2010-09-25, 00:23:04,VALID,1002.28,VALID,0,VALID,81.4688,VALID,52.2927,VALID,28.1033,VALID,28,VALID,0.64375,
2010-09-25, 00:24:04,VALID,1002.31,VALID,0,VALID,81.629,VALID,48.3708,VALID,28.1249,VALID,48,VALID,0.207031,
2010-09-25, 00:25:04,VALID,1002.31,VALID,0,VALID,81.7206,VALID,45.9573,VALID,28.1033,VALID,48,VALID,0,
2010-09-25, 00:26:04,VALID,1002.33,VALID,0,VALID,82.0486,VALID,43.7449,VALID,28.1054,VALID,28,VALID,0.273047,
2010-09-25, 00:27:04,VALID,1002.3,VALID,0,VALID,82.041,VALID,41.9347,VALID,28.0859,VALID,21,VALID,0.718359,
2010-09-25, 00:28:04,VALID,1002.32,VALID,0,VALID,81.7129,VALID,40.3257,VALID,28.0665,VALID,4,VALID,0.655469,
2010-09-25, 00:29:04,VALID,1002.35,VALID,0,VALID,82.0944,VALID,38.8173,VALID,28.0665,VALID,4,VALID,0.496484,
2010-09-25, 00:30:04,VALID,1002.38,VALID,0,VALID,81.8426,VALID,37.51,VALID,28.0275,VALID,2,VALID,0.709766,
2010-09-25, 00:31:04,VALID,1002.38,VALID,0,VALID,82.1096,VALID,36.5043,VALID,28.008,VALID,20,VALID,0.479297,
2010-09-25, 00:32:04,VALID,1002.4,VALID,0,VALID,81.9723,VALID,35.8004,VALID,27.969,VALID,44,VALID,0.610937,
2010-09-25, 00:33:04,VALID,1002.43,VALID,0,VALID,82.7352,VALID,35.901,VALID,27.969,VALID,30,VALID,0.602344,
2010-09-25, 00:34:04,VALID,1002.39,VALID,0,VALID,82.4453,VALID,36.6049,VALID,27.93,VALID,19,VALID,0.763281,
2010-09-25, 00:35:04,VALID,1002.44,VALID,0,VALID,82.2775,VALID,37.2083,VALID,27.9105,VALID,39,VALID,0.662891,
2010-09-25, 00:36:04,VALID,1002.43,VALID,0,VALID,83.4371,VALID,37.7111,VALID,27.8911,VALID,29,VALID,0.380859,
2010-09-25, 00:37:04,VALID,1002.44,VALID,0,VALID,83.2769,VALID,38.2139,VALID,27.8521,VALID,7,VALID,0.863281,
2010-09-25, 00:38:04,VALID,1002.44,VALID,0,VALID,83.3608,VALID,39.0184,VALID,27.8521,VALID,16,VALID,0.790234,
2010-09-25, 00:39:04,VALID,1002.44,VALID,0,VALID,83.2692,VALID,39.9235,VALID,27.7936,VALID,22,VALID,1.20508,
2010-09-25, 00:40:04,VALID,1002.44,VALID,0,VALID,83.0327,VALID,40.2252,VALID,27.7546,VALID,17,VALID,0.804688,
2010-09-25, 00:41:04,VALID,1002.45,VALID,0,VALID,83.2769,VALID,39.7224,VALID,27.7157,VALID,4,VALID,0.873047,
2010-09-25, 00:42:04,VALID,1002.41,VALID,0,VALID,83.4828,VALID,38.9179,VALID,27.6962,VALID,35,VALID,0.686328,
2010-09-25, 00:43:04,VALID,1002.41,VALID,0,VALID,83.2616,VALID,37.6105,VALID,27.6746,VALID,10,VALID,0.692969,
2010-09-25, 00:44:04,VALID,1002.44,VALID,0,VALID,82.9488,VALID,36.1021,VALID,27.6767,VALID,355,VALID,0.917188,
2010-09-25, 00:45:04,VALID,1002.44,VALID,0,VALID,83.3837,VALID,34.0908,VALID,27.6962,VALID,359,VALID,0.353516,
2010-09-25, 00:46:04,VALID,1002.43,VALID,0,VALID,83.2997,VALID,31.4762,VALID,27.6767,VALID,14,VALID,0.409766,
2010-09-25, 00:47:04,VALID,1002.49,VALID,0,VALID,83.4294,VALID,28.8616,VALID,27.6377,VALID,67,VALID,0.314453,
2010-09-25, 00:48:04,VALID,1002.51,VALID,0,VALID,83.8795,VALID,26.7497,VALID,27.6377,VALID,63,VALID,0.147656,
2010-09-25, 00:49:04,VALID,1002.51,VALID,0,VALID,83.6049,VALID,25.3419,VALID,27.6182,VALID,63,VALID,0.168359,
2010-09-25, 00:50:04,VALID,1002.57,VALID,0,VALID,84.3144,VALID,24.5374,VALID,27.5772,VALID,63,VALID,0.06875,
2010-09-25, 00:51:04,VALID,1002.61,VALID,0,VALID,84.0397,VALID,24.0345,VALID,27.5772,VALID,63,VALID,0,
2010-09-25, 00:52:04,VALID,1002.66,VALID,0,VALID,83.9406,VALID,23.23,VALID,27.5598,VALID,63,VALID,0,
2010-09-25, 00:53:04,VALID,1002.68,VALID,0,VALID,84.6043,VALID,22.0233,VALID,27.5403,VALID,70,VALID,0,
2010-09-25, 00:54:04,VALID,1002.72,VALID,0,VALID,84.9018,VALID,20.4143,VALID,27.5208,VALID,71,VALID,0,
2010-09-25, 00:55:04,VALID,1002.73,VALID,0,VALID,84.9018,VALID,18.403,VALID,27.5013,VALID,73,VALID,0.342578,
2010-09-25, 00:56:04,VALID,1002.78,VALID,0,VALID,85.68,VALID,16.4923,VALID,27.4623,VALID,73,VALID,0.277734,
2010-09-25, 00:57:04,VALID,1002.79,VALID,0,VALID,85.7868,VALID,14.1794,VALID,27.4644,VALID,73,VALID,0.122656,
2010-09-25, 00:58:04,VALID,1002.83,VALID,0,VALID,85.8783,VALID,11.8664,VALID,27.4233,VALID,73,VALID,0.188281,
2010-09-25, 00:59:04,VALID,1002.83,VALID,0,VALID,85.8707,VALID,10.358,VALID,27.4059,VALID,73,VALID,0.397656,
2010-09-25, 01:00:04,VALID,1002.82,VALID,0,VALID,85.9393,VALID,9.15123,VALID,27.3649,VALID,59,VALID,0.608203,
2010-09-25, 01:01:04,VALID,1002.84,VALID,0,VALID,86.0767,VALID,7.34109,VALID,27.3259,VALID,15,VALID,0.682813,
2010-09-25, 01:02:04,VALID,1002.81,VALID,0,VALID,86.3971,VALID,5.73209,VALID,27.2869,VALID,10,VALID,0.538672,
2010-09-25, 01:03:04,VALID,1002.83,VALID,0,VALID,86.6183,VALID,4.6259,VALID,27.248,VALID,8,VALID,0.592578,
2010-09-25, 01:04:04,VALID,1002.83,VALID,0,VALID,86.9311,VALID,3.72083,VALID,27.2306,VALID,5,VALID,0.535547,
2010-09-25, 01:05:04,VALID,1002.84,VALID,0,VALID,87.3202,VALID,3.11745,VALID,27.17,VALID,5,VALID,0.448828,
2010-09-25, 01:06:04,VALID,1002.9,VALID,0,VALID,87.5643,VALID,2.51407,VALID,27.1311,VALID,5,VALID,0.601953,
2010-09-25, 01:07:04,VALID,1002.9,VALID,0,VALID,88.0525,VALID,2.21238,VALID,27.0921,VALID,5,VALID,0.267578,
2010-09-25, 01:08:04,VALID,1002.95,VALID,0,VALID,87.6253,VALID,1.70957,VALID,27.0531,VALID,5,VALID,0.465234,
2010-09-25, 01:09:04,VALID,1002.95,VALID,0,VALID,88.0602,VALID,1.40788,VALID,27.0336,VALID,5,VALID,0.276563,
2010-09-25, 01:10:04,VALID,1002.99,VALID,0,VALID,88.4035,VALID,1.10619,VALID,27.0142,VALID,5,VALID,0.359375,
2010-09-25, 01:11:04,VALID,1003.03,VALID,0,VALID,88.7697,VALID,0.804504,VALID,26.9947,VALID,5,VALID,0.479297,
2010-09-25, 01:12:04,VALID,1003.03,VALID,0,VALID,88.3882,VALID,0.603378,VALID,26.9362,VALID,23,VALID,0.610937,
2010-09-25, 01:13:04,VALID,1003.08,VALID,0,VALID,88.907,VALID,0.502815,VALID,26.9362,VALID,23,VALID,0.534375,
2010-09-25, 01:14:04,VALID,1003.11,VALID,0,VALID,88.5713,VALID,0.402252,VALID,26.8973,VALID,31,VALID,0.865234,
2010-09-25, 01:15:04,VALID,1003.1,VALID,0,VALID,89.3571,VALID,0.301689,VALID,26.9167,VALID,25,VALID,0.463281,
2010-09-25, 01:16:04,VALID,1003.12,VALID,0,VALID,89.4715,VALID,0.301689,VALID,26.8973,VALID,41,VALID,0.600781,
2010-09-25, 01:17:04,VALID,1003.12,VALID,0,VALID,89.441,VALID,0.201126,VALID,26.8563,VALID,26,VALID,0.665234,
2010-09-25, 01:18:04,VALID,1003.13,VALID,0,VALID,89.3876,VALID,0.100563,VALID,26.8778,VALID,2,VALID,1.07305,
2010-09-25, 01:19:04,VALID,1003.09,VALID,0,VALID,89.0138,VALID,0.100563,VALID,26.8583,VALID,13,VALID,0.880859,
2010-09-25, 01:20:04,VALID,1003.1,VALID,0,VALID,89.2579,VALID,0.100563,VALID,26.8563,VALID,15,VALID,0.487109,
2010-09-25, 01:21:04,VALID,1003.09,VALID,0,VALID,89.1587,VALID,0.100563,VALID,26.8563,VALID,30,VALID,0.236719,
2010-09-25, 01:22:04,VALID,1003.08,VALID,0,VALID,89.6775,VALID,0.100563,VALID,26.8778,VALID,21,VALID,0.524219,
2010-09-25, 01:23:04,VALID,1003.07,VALID,0,VALID,89.0061,VALID,0,VALID,26.8563,VALID,24,VALID,0.682422,
2010-09-25, 01:24:04,VALID,1003.02,VALID,0,VALID,89.1816,VALID,0,VALID,26.8778,VALID,14,VALID,0.483984,
2010-09-25, 01:25:04,VALID,1003.03,VALID,0,VALID,89.0901,VALID,0.100563,VALID,26.8973,VALID,8,VALID,0.750781,
2010-09-25, 01:26:04,VALID,1003.01,VALID,0,VALID,89.1053,VALID,0,VALID,26.8973,VALID,7,VALID,0.389844,
2010-09-25, 01:27:04,VALID,1002.99,VALID,0,VALID,88.8307,VALID,0,VALID,26.8973,VALID,358,VALID,0.954687,
2010-09-25, 01:28:04,VALID,1002.97,VALID,0,VALID,89.0824,VALID,0,VALID,26.8778,VALID,7,VALID,0.642969,
2010-09-25, 01:29:04,VALID,1002.96,VALID,0,VALID,89.1969,VALID,0,VALID,26.8583,VALID,346,VALID,0.860156,
2010-09-25, 01:30:04,VALID,1002.97,VALID,0,VALID,89.0519,VALID,0.100563,VALID,26.8388,VALID,351,VALID,1.0125,
2010-09-25, 01:31:04,VALID,1002.94,VALID,0,VALID,89.2579,VALID,0.100563,VALID,26.8173,VALID,359,VALID,1.17344,
2010-09-25, 01:32:04,VALID,1002.96,VALID,0,VALID,89.6012,VALID,0.100563,VALID,26.7783,VALID,360,VALID,0.362109,
2010-09-25, 01:33:04,VALID,1002.98,VALID,0,VALID,89.8072,VALID,0,VALID,26.7589,VALID,345,VALID,0.626172,
2010-09-25, 01:34:04,VALID,1002.99,VALID,0,VALID,90.3717,VALID,0,VALID,26.7394,VALID,349,VALID,0.780078,
2010-09-25, 01:35:04,VALID,1003.02,VALID,0,VALID,91.4398,VALID,0.100563,VALID,26.7199,VALID,355,VALID,0.278516,
2010-09-25, 01:36:04,VALID,1003.03,VALID,0,VALID,92.3857,VALID,0.100563,VALID,26.6614,VALID,355,VALID,0.373828,
2010-09-25, 01:37:04,VALID,1003.1,VALID,0,VALID,93.0647,VALID,0.100563,VALID,26.642,VALID,358,VALID,0.505469,
2010-09-25, 01:38:04,VALID,1003.08,VALID,0,VALID,95.0101,VALID,0,VALID,26.6225,VALID,360,VALID,0.596484,
2010-09-25, 01:39:04,VALID,1003.09,VALID,0,VALID,98.9084,VALID,0,VALID,26.5835,VALID,360,VALID,0.314063,
2010-09-25, 01:40:04,VALID,1003.1,VALID,0,INVALID,109.215,VALID,0,VALID,26.5446,VALID,360,VALID,0.142188,
2010-09-25, 01:41:04,VALID,1003.11,VALID,0,INVALID,118.545,VALID,0.100563,VALID,26.5251,VALID,360,VALID,0.227734,
2010-09-25, 01:42:04,VALID,1003.13,VALID,0,INVALID,118.629,VALID,0,VALID,26.4881,VALID,360,VALID,0.15,
2010-09-25, 01:43:04,VALID,1003.13,VALID,0,INVALID,120.735,VALID,0,VALID,26.4492,VALID,360,VALID,0.221875,
2010-09-25, 01:44:04,VALID,1003.12,VALID,0,INVALID,132.72,VALID,0,VALID,26.4297,VALID,360,VALID,0.405469,
2010-09-25, 01:45:04,VALID,1003.1,VALID,0,INVALID,134.909,VALID,0,VALID,26.3693,VALID,360,VALID,0.133203,
2010-09-25, 01:46:04,VALID,1003.08,VALID,0,INVALID,135.588,VALID,0,VALID,26.3733,VALID,360,VALID,0.627344,
2010-09-25, 01:47:04,VALID,1003.08,VALID,0,INVALID,136.13,VALID,0,VALID,26.3518,VALID,360,VALID,0.0351563,
2010-09-25, 01:48:04,VALID,1003.05,VALID,0,INVALID,137.022,VALID,0,VALID,26.3518,VALID,360,VALID,0.090625,
2010-09-25, 01:49:04,VALID,1003.02,VALID,0,INVALID,137.266,VALID,0,VALID,26.3323,VALID,360,VALID,0.347656,
2010-09-25, 01:50:04,VALID,1002.98,VALID,0,INVALID,137.06,VALID,0,VALID,26.2933,VALID,360,VALID,0.214844,
2010-09-25, 01:51:04,VALID,1002.97,VALID,0,INVALID,136.916,VALID,0,VALID,26.2933,VALID,360,VALID,0.0195313,
2010-09-25, 01:52:04,VALID,1002.94,VALID,0,INVALID,137.129,VALID,0,VALID,26.2739,VALID,360,VALID,0,
2010-09-25, 01:53:04,VALID,1002.89,VALID,0,INVALID,137.495,VALID,0,VALID,26.2739,VALID,360,VALID,0,
2010-09-25, 01:54:04,VALID,1002.9,VALID,0,INVALID,137.701,VALID,0,VALID,26.2759,VALID,360,VALID,0,
2010-09-25, 01:55:04,VALID,1002.9,VALID,0,INVALID,138.106,VALID,0,VALID,26.2544,VALID,360,VALID,0,
2010-09-25, 01:56:04,VALID,1002.9,VALID,0,INVALID,138.762,VALID,0,VALID,26.2349,VALID,360,VALID,0,
2010-09-25, 01:57:04,VALID,1002.93,VALID,0,INVALID,138.06,VALID,0,VALID,26.2154,VALID,360,VALID,0,
2010-09-25, 01:58:04,VALID,1002.95,VALID,0,INVALID,138.098,VALID,0,VALID,26.1959,VALID,5,VALID,0.653906,
2010-09-25, 01:59:04,VALID,1002.94,VALID,0,INVALID,137.8,VALID,0,VALID,26.1959,VALID,54,VALID,0.396875,
2010-09-25, 02:00:04,VALID,1002.98,VALID,0,INVALID,137.823,VALID,0,VALID,26.1765,VALID,357,VALID,0.687891,
2010-09-25, 02:01:04,VALID,1003.01,VALID,0,INVALID,137.633,VALID,0,VALID,26.1959,VALID,3,VALID,0.309766,
2010-09-25, 02:02:04,VALID,1003.02,VALID,0,INVALID,137.747,VALID,0,VALID,26.157,VALID,3,VALID,0.258594,
2010-09-25, 02:03:04,VALID,1003.06,VALID,0,INVALID,138.235,VALID,0,VALID,26.157,VALID,3,VALID,0.237891,
2010-09-25, 02:04:04,VALID,1003.07,VALID,0,INVALID,138.617,VALID,0,VALID,26.157,VALID,3,VALID,0,
2010-09-25, 02:05:04,VALID,1003.07,VALID,0,INVALID,138.785,VALID,0,VALID,26.116,VALID,358,VALID,0.482812,
2010-09-25, 02:06:04,VALID,1003.11,VALID,0,INVALID,138.914,VALID,0,VALID,26.118,VALID,358,VALID,0.273047,
2010-09-25, 02:07:04,VALID,1003.12,VALID,0,INVALID,139.067,VALID,0,VALID,26.0985,VALID,6,VALID,0.830078,
2010-09-25, 02:08:04,VALID,1003.14,VALID,0,INVALID,139.235,VALID,0,VALID,26.0985,VALID,7,VALID,0.485938,
2010-09-25, 02:09:04,VALID,1003.13,VALID,0,INVALID,139.364,VALID,0,VALID,26.0985,VALID,7,VALID,0.325781,
2010-09-25, 02:10:04,VALID,1003.13,VALID,0,INVALID,139.464,VALID,0,VALID,26.0791,VALID,7,VALID,0.441016,
2010-09-25, 02:11:04,VALID,1003.16,VALID,0,INVALID,139.532,VALID,0,VALID,26.0985,VALID,12,VALID,0.678516,
2010-09-25, 02:12:04,VALID,1003.17,VALID,0,INVALID,139.586,VALID,0,VALID,26.0791,VALID,5,VALID,0.396875,
2010-09-25, 02:13:04,VALID,1003.18,VALID,0,INVALID,139.647,VALID,0,VALID,26.0985,VALID,5,VALID,0.165625,
2010-09-25, 02:14:04,VALID,1003.19,VALID,0,INVALID,139.685,VALID,0,VALID,26.0791,VALID,15,VALID,0.407031,
2010-09-25, 02:15:04,VALID,1003.19,VALID,0,INVALID,139.677,VALID,0,VALID,26.0791,VALID,15,VALID,0.421094,
2010-09-25, 02:16:04,VALID,1003.23,VALID,0,INVALID,139.7,VALID,0,VALID,26.0187,VALID,15,VALID,0.321484,
2010-09-25, 02:17:04,VALID,1003.23,VALID,0,INVALID,139.761,VALID,0,VALID,26.0187,VALID,15,VALID,0.154297,
2010-09-25, 02:18:04,VALID,1003.24,VALID,0,INVALID,139.753,VALID,0,VALID,26.0187,VALID,345,VALID,0.565234,
2010-09-25, 02:19:04,VALID,1003.3,VALID,0,INVALID,139.723,VALID,0,VALID,26.0206,VALID,358,VALID,0.719141,
2010-09-25, 02:20:04,VALID,1003.32,VALID,0,INVALID,139.692,VALID,0,VALID,26.0206,VALID,354,VALID,0.605078,
2010-09-25, 02:21:04,VALID,1003.37,VALID,0,INVALID,139.601,VALID,0,VALID,26.0401,VALID,331,VALID,0.673437,
2010-09-25, 02:22:04,VALID,1003.35,VALID,0,INVALID,139.563,VALID,0,VALID,26.0381,VALID,353,VALID,0.483203,
2010-09-25, 02:23:04,VALID,1003.36,VALID,0,INVALID,139.502,VALID,0,VALID,26.0401,VALID,354,VALID,0.563281,
2010-09-25, 02:24:04,VALID,1003.39,VALID,0,INVALID,139.502,VALID,0,VALID,26.0206,VALID,346,VALID,0.861328,
2010-09-25, 02:25:04,VALID,1003.42,VALID,0,INVALID,139.715,VALID,0,VALID,26.0206,VALID,360,VALID,0.619141,
2010-09-25, 02:26:04,VALID,1003.43,VALID,0,INVALID,139.792,VALID,0,VALID,26.0012,VALID,4,VALID,0.467969,
2010-09-25, 02:27:04,VALID,1003.43,VALID,0,INVALID,139.868,VALID,0,VALID,25.9622,VALID,1,VALID,0.645312,
2010-09-25, 02:28:04,VALID,1003.42,VALID,0,INVALID,139.906,VALID,0,VALID,25.9622,VALID,2,VALID,0.568359,
2010-09-25, 02:29:04,VALID,1003.48,VALID,0,INVALID,139.959,VALID,0,VALID,25.9018,VALID,2,VALID,0.38125,
2010-09-25, 02:30:04,VALID,1003.49,VALID,0,INVALID,140.043,VALID,0,VALID,25.9038,VALID,2,VALID,0.348437,
2010-09-25, 02:31:04,VALID,1003.52,VALID,0,INVALID,140.12,VALID,0,VALID,25.9038,VALID,2,VALID,0,
2010-09-25, 02:32:04,VALID,1003.52,VALID,0,INVALID,140.127,VALID,0,VALID,25.8629,VALID,2,VALID,0.171094,
2010-09-25, 02:33:04,VALID,1003.57,VALID,0,INVALID,140.173,VALID,0,VALID,25.8434,VALID,43,VALID,0.543359,
2010-09-25, 02:34:04,VALID,1003.6,VALID,0,INVALID,140.204,VALID,0,VALID,25.8434,VALID,68,VALID,0.387109,
2010-09-25, 02:35:04,VALID,1003.62,VALID,0,INVALID,140.196,VALID,0,VALID,25.8453,VALID,68,VALID,0.176172,
2010-09-25, 02:36:04,VALID,1003.61,VALID,0,INVALID,140.196,VALID,0,VALID,25.8259,VALID,67,VALID,0.203516,
2010-09-25, 02:37:04,VALID,1003.65,VALID,0,INVALID,140.204,VALID,0,VALID,25.8064,VALID,34,VALID,0.541797,
2010-09-25, 02:38:04,VALID,1003.66,VALID,0,INVALID,140.242,VALID,0,VALID,25.8064,VALID,9,VALID,0.49375,
2010-09-25, 02:39:04,VALID,1003.65,VALID,0,INVALID,140.242,VALID,0,VALID,25.8064,VALID,10,VALID,0.309766,
2010-09-25, 02:40:04,VALID,1003.66,VALID,0,INVALID,140.249,VALID,0,VALID,25.7655,VALID,12,VALID,0.354688,
2010-09-25, 02:41:04,VALID,1003.67,VALID,0,INVALID,140.249,VALID,0,VALID,25.7869,VALID,12,VALID,0.160547,
2010-09-25, 02:42:04,VALID,1003.72,VALID,0,INVALID,140.249,VALID,0,VALID,25.7655,VALID,12,VALID,0.162891,
2010-09-25, 02:43:04,VALID,1003.75,VALID,0,INVALID,140.265,VALID,0,VALID,25.7869,VALID,12,VALID,0.211719,
2010-09-25, 02:44:04,VALID,1003.76,VALID,0,INVALID,140.257,VALID,0,VALID,25.7655,VALID,13,VALID,0.442187,
2010-09-25, 02:45:04,VALID,1003.8,VALID,0,INVALID,140.287,VALID,0,VALID,25.7869,VALID,13,VALID,0.0148437,
2010-09-25, 02:46:04,VALID,1003.82,VALID,0,INVALID,140.31,VALID,0,VALID,25.785,VALID,13,VALID,0,
2010-09-25, 02:47:04,VALID,1003.82,VALID,0,INVALID,140.31,VALID,0,VALID,25.8064,VALID,13,VALID,0.0394531,
2010-09-25, 02:48:04,VALID,1003.81,VALID,0,INVALID,140.318,VALID,0,VALID,25.785,VALID,13,VALID,0.282813,
2010-09-25, 02:49:04,VALID,1003.78,VALID,0,INVALID,140.326,VALID,0,VALID,25.7869,VALID,13,VALID,0.198437,
2010-09-25, 02:50:04,VALID,1003.8,VALID,0,INVALID,140.326,VALID,0,VALID,25.746,VALID,13,VALID,0.427734,
2010-09-25, 02:51:04,VALID,1003.81,VALID,0,INVALID,140.333,VALID,0,VALID,25.746,VALID,13,VALID,0.576953,
2010-09-25, 02:52:04,VALID,1003.82,VALID,0,INVALID,140.295,VALID,0.100563,VALID,25.6681,VALID,18,VALID,0.539844,
2010-09-25, 02:53:04,VALID,1003.83,VALID,0,INVALID,140.257,VALID,0,VALID,25.6097,VALID,18,VALID,0.456641,
2010-09-25, 02:54:04,VALID,1003.83,VALID,0,INVALID,140.272,VALID,0,VALID,25.5493,VALID,18,VALID,0.351172,
2010-09-25, 02:55:04,VALID,1003.84,VALID,0,INVALID,140.28,VALID,0.100563,VALID,25.5318,VALID,18,VALID,0.295703,
2010-09-25, 02:56:04,VALID,1003.85,VALID,0,INVALID,140.272,VALID,0,VALID,25.4928,VALID,18,VALID,0.355859,
2010-09-25, 02:57:04,VALID,1003.85,VALID,0,INVALID,140.204,VALID,0.100563,VALID,25.4928,VALID,6,VALID,0.552344,
2010-09-25, 02:58:04,VALID,1003.88,VALID,0,INVALID,140.234,VALID,0,VALID,25.5513,VALID,6,VALID,0.1625,
2010-09-25, 02:59:04,VALID,1003.89,VALID,0,INVALID,140.173,VALID,0,VALID,25.4928,VALID,27,VALID,0.149609,
2010-09-25, 03:00:04,VALID,1003.9,VALID,0,INVALID,140.31,VALID,0,VALID,25.5123,VALID,27,VALID,0.305469,
2010-09-25, 03:01:04,VALID,1003.92,VALID,0,INVALID,140.326,VALID,0,VALID,25.5123,VALID,27,VALID,0.244141,
2010-09-25, 03:02:04,VALID,1003.93,VALID,0,INVALID,140.318,VALID,0,VALID,25.4948,VALID,27,VALID,0.101563,
2010-09-25, 03:03:04,VALID,1003.95,VALID,0,INVALID,140.318,VALID,0,VALID,25.4539,VALID,27,VALID,0.246875,
2010-09-25, 03:04:04,VALID,1003.95,VALID,0,INVALID,140.295,VALID,0,VALID,25.4344,VALID,27,VALID,0.18125,
2010-09-25, 03:05:04,VALID,1003.95,VALID,0,INVALID,140.303,VALID,0,VALID,25.4363,VALID,27,VALID,0.135547,
2010-09-25, 03:06:04,VALID,1003.97,VALID,0,INVALID,140.257,VALID,0,VALID,25.4149,VALID,27,VALID,0.130469,
2010-09-25, 03:07:04,VALID,1004.01,VALID,0,INVALID,140.234,VALID,0,VALID,25.4169,VALID,27,VALID,0.300781,
2010-09-25, 03:08:04,VALID,1004.03,VALID,0,INVALID,140.257,VALID,0,VALID,25.3974,VALID,27,VALID,0.417969,
2010-09-25, 03:09:04,VALID,1004.07,VALID,0,INVALID,140.165,VALID,0.100563,VALID,25.3565,VALID,30,VALID,0.464844,
2010-09-25, 03:10:04,VALID,1004.11,VALID,0,INVALID,140.158,VALID,0,VALID,25.3176,VALID,32,VALID,0.234375,
2010-09-25, 03:11:04,VALID,1004.09,VALID,0,INVALID,140.12,VALID,0,VALID,25.2981,VALID,32,VALID,0.104297,
2010-09-25, 03:12:04,VALID,1004.12,VALID,0,INVALID,140.112,VALID,0.100563,VALID,25.2786,VALID,32,VALID,0.177344,
2010-09-25, 03:13:04,VALID,1004.11,VALID,0,INVALID,140.104,VALID,0,VALID,25.2397,VALID,32,VALID,0.283203,
2010-09-25, 03:14:04,VALID,1004.15,VALID,0,INVALID,140.089,VALID,0,VALID,25.2221,VALID,32,VALID,0.114453,
2010-09-25, 03:15:04,VALID,1004.17,VALID,0,INVALID,140.104,VALID,0.100563,VALID,25.1813,VALID,32,VALID,0.240234,
2010-09-25, 03:16:04,VALID,1004.19,VALID,0,INVALID,140.051,VALID,0,VALID,25.1423,VALID,32,VALID,0.391406,
2010-09-25, 03:17:04,VALID,1004.19,VALID,0,INVALID,139.967,VALID,0.100563,VALID,25.1229,VALID,32,VALID,0.292578,
2010-09-25, 03:18:04,VALID,1004.19,VALID,0,INVALID,139.784,VALID,0.100563,VALID,25.1442,VALID,32,VALID,0.435547,
2010-09-25, 03:19:04,VALID,1004.19,VALID,0,INVALID,139.731,VALID,0,VALID,25.0839,VALID,32,VALID,0.332422,
2010-09-25, 03:20:04,VALID,1004.17,VALID,0,INVALID,139.624,VALID,0,VALID,25.0839,VALID,32,VALID,0.199609,
2010-09-25, 03:21:04,VALID,1004.15,VALID,0,INVALID,139.563,VALID,0.100563,VALID,25.045,VALID,32,VALID,0.0140625,
2010-09-25, 03:22:04,VALID,1004.18,VALID,0,INVALID,139.418,VALID,0.100563,VALID,25.0858,VALID,32,VALID,0,
2010-09-25, 03:23:04,VALID,1004.17,VALID,0,INVALID,139.349,VALID,0.100563,VALID,25.0255,VALID,32,VALID,0,
2010-09-25, 03:24:04,VALID,1004.18,VALID,0,INVALID,139.258,VALID,0,VALID,25.0255,VALID,32,VALID,0,
2010-09-25, 03:25:04,VALID,1004.19,VALID,0,INVALID,139.09,VALID,0,VALID,25.0255,VALID,32,VALID,0,
2010-09-25, 03:26:04,VALID,1004.2,VALID,0,INVALID,138.952,VALID,0.100563,VALID,25.0255,VALID,32,VALID,0,
2010-09-25, 03:27:04,VALID,1004.22,VALID,0,INVALID,138.884,VALID,0.100563,VALID,25.006,VALID,32,VALID,0,
2010-09-25, 03:28:04,VALID,1004.25,VALID,0,INVALID,138.67,VALID,0,VALID,25.0255,VALID,32,VALID,0.192969,
2010-09-25, 03:29:04,VALID,1004.28,VALID,0,INVALID,138.579,VALID,0,VALID,25.006,VALID,32,VALID,0.198437,
2010-09-25, 03:30:04,VALID,1004.27,VALID,0,INVALID,138.479,VALID,0,VALID,25.0255,VALID,32,VALID,0.435937,
2010-09-25, 03:31:04,VALID,1004.3,VALID,0,INVALID,138.426,VALID,0,VALID,25.0274,VALID,32,VALID,0.284766,
2010-09-25, 03:32:04,VALID,1004.32,VALID,0,INVALID,138.319,VALID,0.100563,VALID,24.9866,VALID,32,VALID,0.169141,
2010-09-25, 03:33:04,VALID,1004.37,VALID,0,INVALID,138.197,VALID,0,VALID,25.0079,VALID,32,VALID,0.130859,
2010-09-25, 03:34:04,VALID,1004.37,VALID,0,INVALID,138.205,VALID,0.100563,VALID,24.9866,VALID,32,VALID,0.121484,
2010-09-25, 03:35:04,VALID,1004.39,VALID,0,INVALID,138.167,VALID,0.100563,VALID,24.9476,VALID,32,VALID,0.423828,
2010-09-25, 03:36:04,VALID,1004.41,VALID,0,INVALID,138.144,VALID,0.100563,VALID,24.9282,VALID,32,VALID,0.312891,
2010-09-25, 03:37:04,VALID,1004.39,VALID,0,INVALID,138.083,VALID,0.100563,VALID,24.9068,VALID,32,VALID,0.0195313,
2010-09-25, 03:38:04,VALID,1004.39,VALID,0,INVALID,138.029,VALID,0.100563,VALID,24.9087,VALID,32,VALID,0,
2010-09-25, 03:39:04,VALID,1004.36,VALID,0,INVALID,137.968,VALID,0.100563,VALID,24.8892,VALID,32,VALID,0,